Tracking 25709 objects as of 24-May-2022
HD Live streaming from Space Station
objects crossing your sky now

ORBICRAFT-ZORKIY

Track ORBICRAFT-ZORKIY now!
10-day predictions
ORBICRAFT-ZORKIY is classified as:


NORAD ID: 47960
Int'l Code: 2021-022AE
Perigee: 537.7 km
Apogee: 564.3 km
Inclination: 97.5 °
Period: 95.5 minutes
Semi major axis: 6921 km
RCS: Unknown
Launch date: March 22, 2021
Source: (TBD)
Launch site: TYURATAM MISSILE AND SPACE COMPLEX (TTMTR)

Uplink (MHz):
Downlink (MHz): 437.850/437.950/10465.000
Beacon (MHz):
Mode: 2k4/9k6 FSK DVB-S2
Call sign: RS15S
Status: Active

aabbcc
Your satellite tracking list
Your tracking list is empty




NASA's NSSDC Master Catalog

Two Line Element Set (TLE):
1 47960U 21022AE  22144.11037856  .00007070  00000-0  46793-3 0  9993
2 47960  97.5343  44.3150 0019174 225.9436 270.3918 15.07496235 63842
Source of the keplerian elements: AFSPC